User: anonymous   Login
Location: Selby
(38.0566°N, 122.2439°W)
Time: 20:30:59
(UTC+00:00)
Language:

Okean 2 Rocket - Orbit

View from above orbital plane
View from above orbital plane
View from above satellite
View from above satellite

Ground track
Ground track

The orbit data is extracted from the following two-line orbital elements,

1 20511U 90018B   24197.87401869  .00000611  00000-0  75616-4 0  9990
2 20511  82.5207  65.2431 0015033 271.7674  88.1817 14.81107110833463
Epoch (UTC): 15 July 2024 20:58:35
Eccentricity: 0.0015033
inclination: 82.5207°
perigee height: 615 km
apogee height: 636 km
right ascension of ascending node: 65.2431°
argument of perigee: 271.7674°
revolutions per day: 14.81107110
mean anomaly at epoch: 88.1817°
orbit number at epoch: 83346

The dashed part of the orbit path shows where the satellite is in the earth's shadow,  

DLR